DateTimeUTC,F1_A11,F1_S11,BsB_S11,BsG_S11,BsR_S11,BbsB_S11,BbsG_S11,BbsR_S11,BaB_A11,BaG_A11,BaR_A11,Tu_S11,T_S11,Uu_S11,U_S11,P_S11,T1_A11
2021-07-17T13:00:00Z,00000200,20000000,,,,,,,0000.13,-000.41,-000.16,17.8,24.3,08.2,05.5,0674.7,31.0
2021-07-17T13:01:00Z,00000200,20000000,,,,,,,-000.16,0000.34,0000.03,17.8,24.3,08.2,05.5,0674.7,31.0
2021-07-17T13:02:00Z,00000200,20000000,,,,,,,0000.30,-000.12,0000.10,17.8,24.3,08.2,05.5,0674.7,31.0
2021-07-17T13:03:00Z,00000200,60000000,,,,,,,0000.32,0000.30,0000.36,17.8,24.3,08.2,05.5,0674.7,31.0
2021-07-17T13:04:00Z,00000200,40000000,0001.60,0000.64,0001.00,-000.20,0000.34,0000.08,0000.23,-000.00,-000.01,17.8,24.1,08.3,05.7,0675.7,30.9
2021-07-17T13:05:00Z,00000200,00000000,0000.99,0001.32,0000.59,-000.14,0000.07,0000.29,0000.26,0000.51,0000.04,17.9,24.1,08.2,05.6,0675.8,30.9
2021-07-17T13:06:00Z,00000200,00000000,0001.21,0000.79,0000.34,-000.00,0000.05,-000.17,0000.35,0000.04,0000.72,17.9,24.1,08.5,05.8,0675.8,30.9
2021-07-17T13:07:00Z,00000200,00000000,0001.37,0001.08,0000.80,0000.02,-000.08,0000.22,0000.35,0000.45,-000.00,17.9,24.1,08.4,05.8,0675.8,30.9
2021-07-17T13:08:00Z,00000200,00000000,0001.30,0000.81,0000.47,0000.24,0000.16,0000.34,0000.07,0000.21,-000.08,17.9,24.1,08.5,05.8,0675.8,31.0
2021-07-17T13:09:00Z,00000200,00000000,0000.96,0000.91,0000.85,-000.44,0000.32,0000.39,0000.28,0000.39,0000.33,17.9,24.1,08.5,05.8,0675.8,31.0
2021-07-17T13:10:00Z,00000200,00000000,0001.69,0000.74,0000.73,0000.10,-000.01,0000.22,0000.34,-000.02,0000.28,17.9,24.1,08.5,05.9,0675.8,31.0
2021-07-17T13:11:00Z,00000200,00000000,0000.68,0000.92,0000.48,-000.19,0000.28,0000.27,0000.27,0000.66,0000.28,17.9,24.1,08.5,05.8,0675.8,31.0
2021-07-17T13:12:00Z,00000200,00000000,0001.29,0000.79,0000.65,-000.25,0000.30,0000.08,0000.50,-000.00,-000.01,17.9,24.1,08.6,05.9,0675.8,31.0
2021-07-17T13:13:00Z,00000200,00000000,0001.63,0000.92,0000.33,-000.42,0000.58,-000.05,-000.04,0000.30,0000.08,17.9,24.1,08.7,05.9,0675.8,30.9
2021-07-17T13:14:00Z,00000200,00000000,0000.94,0000.79,0000.69,0000.20,0000.07,0000.24,0000.34,0000.00,0000.58,17.9,24.1,08.5,05.8,0675.8,30.9
2021-07-17T13:15:00Z,00000200,00000000,0001.33,0000.99,0001.21,-000.29,-000.12,0000.23,0000.16,0000.44,0000.12,17.9,24.1,08.7,05.9,0675.8,31.0
2021-07-17T13:16:00Z,00000200,00000000,0001.15,0000.89,0000.68,0000.09,0000.37,-000.14,-000.01,0000.32,0000.08,17.9,24.1,08.6,05.9,0675.7,31.0
2021-07-17T13:17:00Z,00000200,00000000,0000.40,0000.95,0000.76,-000.27,0000.19,0000.14,0000.43,0000.25,-000.17,17.9,24.1,08.5,05.8,0675.8,30.9
2021-07-17T13:18:00Z,00000200,00000000,0000.51,0001.20,0000.82,-000.23,0000.19,0000.16,0000.15,0000.04,0000.43,17.9,24.1,08.7,05.9,0675.7,30.9
2021-07-17T13:19:00Z,00000200,00000000,0000.53,0000.95,0000.18,0000.03,0000.00,0000.03,0000.49,0000.22,0000.18,17.9,24.1,08.3,05.7,0675.8,31.0
2021-07-17T13:20:00Z,00000200,00000000,0001.68,0001.12,0000.66,0000.12,0000.41,0000.03,-000.01,0000.23,0000.12,17.9,24.1,08.5,05.8,0675.7,30.9
2021-07-17T13:21:00Z,00000200,00000000,0000.85,0000.91,0000.62,-000.54,0000.36,0000.07,0000.42,0000.26,0000.42,18.0,24.1,08.4,05.8,0675.8,31.0
2021-07-17T13:22:00Z,00000200,00000000,0000.53,0001.32,0000.71,0000.03,0000.13,0000.44,-000.02,0000.09,-000.13,18.0,24.1,08.6,05.9,0675.8,31.0
2021-07-17T13:23:00Z,00000200,00000000,0001.05,0000.68,0000.74,0000.06,-000.15,0000.29,0000.42,0000.16,0000.56,18.0,24.1,08.4,05.8,0675.8,31.0
2021-07-17T13:24:00Z,00000200,00000000,0001.56,0000.69,0000.52,0000.10,0000.08,-000.04,0000.07,0000.07,-000.05,18.0,24.1,08.3,05.7,0675.7,31.0
2021-07-17T13:25:00Z,00000200,00000000,0002.00,0000.78,0000.80,-000.22,0000.30,0000.26,0000.67,0000.67,0000.49,18.0,24.1,08.3,05.7,0675.8,31.0
2021-07-17T13:26:00Z,00000200,00000000,0001.07,0000.71,0000.48,0000.15,0000.30,-000.08,-000.26,-000.05,-000.12,18.0,24.1,08.3,05.7,0675.7,31.0
2021-07-17T13:27:00Z,00000200,00000000,0001.23,0000.70,0000.66,0000.07,0000.52,0000.13,0000.46,0000.25,0000.07,18.0,24.1,08.3,05.7,0675.8,31.0
2021-07-17T13:28:00Z,00000200,00000000,0000.42,0001.08,0000.55,0000.29,0000.21,-000.02,0000.30,0000.31,0000.04,18.0,24.1,08.5,05.8,0675.9,31.0
2021-07-17T13:29:00Z,00000200,00000000,0001.09,0000.75,0000.58,-000.54,0000.23,0000.10,-000.16,-000.11,0000.21,18.0,24.1,08.6,05.9,0675.8,31.0
2021-07-17T13:30:00Z,00000200,00000000,0000.38,0000.79,0000.48,0000.09,0000.40,0000.24,0000.44,0000.32,0000.07,18.0,24.1,08.4,05.8,0675.9,31.0
2021-07-17T13:31:00Z,00000200,00000000,0000.71,0001.09,0000.75,-000.29,0000.16,-000.08,0000.33,0000.13,0000.36,18.0,24.1,08.5,05.8,0675.8,30.9
2021-07-17T13:32:00Z,00000200,00000000,0001.43,0001.13,0000.35,-000.26,0000.09,0000.07,-000.01,0000.42,0000.15,18.0,24.1,08.4,05.8,0675.8,31.0
2021-07-17T13:33:00Z,00000200,00000000,0001.64,0000.56,0000.35,-000.02,0000.44,0000.16,0000.54,0000.14,0000.17,18.0,24.1,08.5,05.8,0675.8,31.0
2021-07-17T13:34:00Z,00000200,00000000,0000.76,0000.86,0000.47,0000.01,0000.24,-000.09,-000.10,0000.42,0000.13,18.0,24.1,08.6,05.9,0675.7,31.0
2021-07-17T13:35:00Z,00000200,00000000,0000.28,0000.86,0000.11,0000.53,0000.23,-000.03,0000.74,0000.03,0000.36,18.0,24.1,08.6,05.9,0675.8,31.0
2021-07-17T13:36:00Z,00000200,00000000,0000.42,0000.91,0000.57,-000.19,0000.34,0000.19,-000.01,0000.25,-000.06,17.9,24.1,08.7,05.9,0675.8,31.0
2021-07-17T13:37:00Z,00000200,00000000,0001.08,0000.88,0000.84,0000.91,0000.30,0000.31,0000.56,0000.46,0000.34,17.9,24.1,08.6,05.9,0675.9,31.0
2021-07-17T13:38:00Z,00000200,00000000,0001.10,0000.76,0000.80,-000.36,-000.00,-000.05,0000.18,0000.10,0000.24,17.9,24.1,08.8,06.0,0675.8,31.0
2021-07-17T13:39:00Z,00000200,00000000,0001.21,0000.88,0000.53,0000.18,0000.18,0000.25,0000.18,-000.01,0000.21,17.9,24.1,08.8,06.0,0675.8,31.0
2021-07-17T13:40:00Z,00000200,00000000,0000.70,0000.68,0000.89,-000.08,0000.05,0000.50,-000.00,0000.20,-000.21,17.9,24.1,08.8,06.0,0675.8,31.0
2021-07-17T13:41:00Z,00000200,00000000,0000.87,0000.86,0000.40,-000.34,0000.47,0000.30,0000.19,0000.36,0000.24,17.9,24.1,08.7,06.0,0675.8,30.9
2021-07-17T13:42:00Z,00000200,00000000,0000.86,0001.03,0000.60,0000.42,0000.03,0000.08,0000.46,0000.24,0000.21,17.9,24.1,08.8,06.0,0675.8,30.9
2021-07-17T13:43:00Z,00000200,00000000,0000.40,0000.98,0000.62,-000.34,0000.18,0000.17,-000.13,0000.09,0000.17,17.9,24.0,08.9,06.1,0675.7,31.0
2021-07-17T13:44:00Z,00000200,00000000,0000.75,0000.78,0000.41,-000.21,0000.36,0000.15,0000.26,-000.09,0000.21,17.9,24.0,08.6,05.9,0675.7,30.9
2021-07-17T13:45:00Z,00000200,00000000,0001.58,0001.03,0000.59,0000.02,0000.26,0000.20,0000.52,0000.49,0000.24,17.9,24.1,08.7,05.9,0675.8,30.9
2021-07-17T13:46:00Z,00000200,00000000,0000.88,0001.11,0000.61,-000.13,0000.17,0000.11,0000.13,0000.15,0000.03,17.9,24.0,08.8,06.0,0675.7,30.9
2021-07-17T13:47:00Z,00000200,00000000,0001.52,0000.54,0000.59,0000.68,0000.24,0000.12,0000.39,0000.51,0000.63,17.9,24.1,08.8,06.0,0675.7,30.9
2021-07-17T13:48:00Z,00000200,00000000,0001.17,0000.64,0000.43,-000.03,0000.16,-000.27,0000.27,-000.03,0000.01,17.9,24.1,08.9,06.1,0675.7,31.0
2021-07-17T13:49:00Z,00000200,00000000,0001.10,0000.47,0000.50,-000.01,-000.00,0000.06,0000.68,0000.90,0000.31,17.9,24.1,08.8,06.0,0675.8,31.0
2021-07-17T13:50:00Z,00000200,00000000,0001.01,0001.09,0000.65,0000.18,0000.33,0000.00,0000.16,-000.05,0000.05,17.9,24.1,08.7,05.9,0675.7,30.9
2021-07-17T13:51:00Z,00000200,00000000,0001.00,0001.18,0000.51,0000.34,0000.15,-000.13,-000.27,-000.05,0000.17,17.9,24.1,08.7,06.0,0675.7,31.0
2021-07-17T13:52:00Z,00000200,00000000,0001.01,0000.87,0000.78,-000.26,0000.47,0000.46,0000.73,0000.37,0000.38,18.0,24.1,08.4,05.8,0675.7,31.0
2021-07-17T13:53:00Z,00000200,00000000,0001.13,0001.00,0000.68,-000.10,0000.28,0000.24,0000.20,0000.70,-000.19,18.1,24.2,08.8,06.1,0675.8,31.0
2021-07-17T13:54:00Z,00000200,00000000,0000.59,0000.87,0000.76,-000.31,-000.00,0000.15,0000.16,-000.12,0000.48,18.1,24.2,08.7,06.0,0675.9,31.0
2021-07-17T13:55:00Z,00000200,00000000,0001.28,0001.10,0000.66,0000.13,0000.22,-000.03,0000.20,0000.27,0000.30,18.1,24.2,08.7,06.0,0675.9,31.0
2021-07-17T13:56:00Z,00000200,00000000,0000.70,0000.62,0000.65,-000.31,0000.14,0000.19,0000.57,0000.24,0000.04,18.1,24.2,08.9,06.2,0675.9,31.0
2021-07-17T13:57:00Z,00000200,40000000,,,,,,,0000.07,0000.14,-000.09,18.2,24.2,08.8,06.1,0675.9,31.0
2021-07-17T13:58:00Z,00000200,60000000,,,,,,,-000.39,-000.07,0000.28,18.0,24.3,08.8,05.9,0674.9,31.0
2021-07-17T13:59:00Z,00000200,20000000,,,,,,,0000.17,0000.27,-000.30,18.0,24.4,08.7,05.9,0674.8,31.0
